Vertical_Velocity
-1 -2 -2 -7 23 -1 -1 -2 -3 -3 0 -6 -1 -0 11 8 6 -3 6 -4 -1 -1 -2 -1 4 -2 -1 -4 0 -3 2 0 0 -0 -2 -3 -3 -0 4 4 -2 -0 -1 1
-3 0 -2 -3 2 -1 -1 -6 3 9 -4 2 -4 -4 -10 -4 0 7 -7 -1 -2 -5 2 -4 -3 5 -1 -2 0 -3 -1 1 -2 -0 -0 -2 -2 1 5 3 -0 -1 -2 -2
-0 -9 2 0 2 -1 -7 4 -2 -1 9 -2 1 -12 -1 18 82 -11 5 2 3 -2 -2 0 -5 -8 6 2 -0 -1 -1 1 2 -2 2 -1 -1 2 4 3 -1 -1 1 -3
-3 -1 -1 0 -0 -2 -1 2 0 -1 1 -5 4 -8 -24 -6 9 5 2 3 1 4 -2 -3 -4 -3 -8 5 -0 -0 1 -2 2 0 -1 -0 -1 1 1 2 2 3 -0 -2
2 -1 -1 -2 -1 8 -9 -2 -1 -3 -1 -6 11 -19 -11 -8 4 94 -3 5 3 0 3 -1 -1 -3 2 -4 -3 -1 1 0 -0 2 1 0 1 3 -1 -3 -1 4 -1 -7
2 -2 -1 -1 -1 -3 -2 2 4 24 -7 -5 10 8 -9 11 -16 -60 -24 -9 4 4 0 -2 -0 0 1 -2 -3 2 -1 -1 -0 1 2 2 0 3 2 -3 -2 1 5 5
-0 0 -0 1 -3 -3 -5 -2 -8 9 20 -15 -7 9 23 24 -6 7 -3 3 2 3 3 -7 -3 -2 -0 -2 -2 0 -0 -1 -2 -1 -1 -1 -0 5 -1 -2 -3 -1 -2 -6
5 2 -3 -4 -0 -2 -6 18 24 -3 43 -15 -9 -21 -1 7 5 8 5 8 1 4 -4 -6 -4 -3 2 -1 -2 -1 0 1 -1 -1 -1 -1 -0 0 2 3 5 2 -2 -7
1 28 14 -5 -2 -2 -5 -9 20 1 12 44 -6 -6 -9 10 4 3 -3 -0 0 -1 0 -2 1 2 -3 0 0 -1 1 -1 1 -1 2 0 -1 -1 -1 3 3 4 -1 -3
-8 -5 16 5 -9 -4 -7 -6 -9 -5 8 2 72 9 7 19 13 10 12 -6 -6 -4 -1 1 -1 0 -1 -0 1 1 -0 -0 0 -0 1 -0 1 -1 -2 1 5 3 -1 -2
-1 -4 15 -7 -5 -2 -6 -7 -4 -11 2 7 -12 -5 -7 -37 -48 0 8 1 -2 -2 -3 -2 -1 0 0 -1 -1 -1 1 0 -1 1 0 0 -1 -1 -3 0 3 2 -1 -3
2 -1 -2 -2 -7 -7 -4 1 11 14 4 -7 15 -8 -0 8 -7 2 -3 5 1 -4 -3 1 1 -1 0 -2 -2 0 1 1 -1 -1 -1 0 0 -0 -2 -1 2 2 3 -2
-2 2 -8 -8 -5 61 41 8 -0 26 30 -14 5 3 2 19 15 9 -6 -11 -10 1 -1 -2 0 -0 -2 -1 -1 -2 -1 0 0 1 1 -0 1 1 0 -1 -1 2 3 3
1 -3 11 4 15 -13 -4 4 -10 -2 2 37 31 11 7 -16 -17 23 8 47 12 -13 -4 1 -1 -0 1 -0 -1 -2 0 -2 -1 -0 -1 -1 -0 -2 -2 -3 -3 -1 1 2
-5 -8 -7 -8 5 -5 -10 -6 -9 -8 2 -8 37 1 0 -8 -29 -0 13 33 3 -10 -9 -1 2 0 -1 0 -1 -2 -1 -1 -1 -1 1 -1 -1 -1 -2 -1 -2 -2 -2 -1
2 -5 -8 -9 1 6 -26 10 -3 -12 -32 -12 1 26 11 13 -11 -15 -20 -7 -5 -14 -6 -7 1 1 -0 -1 -3 -1 -1 -1 -1 -2 -2 -1 -1 -0 0 -1 -1 -2 -1 -4
-3 -0 -2 -13 -5 -7 -7 31 -23 0 -5 51 -9 33 -10 -14 -10 -23 2 -1 -21 -15 -6 -1 -3 -3 -0 0 -1 -0 -2 -3 -2 -2 -1 -1 1 1 1 0 -1 -1 -0 -0
-1 -4 3 -7 -0 -22 19 10 4 5 12 -16 -14 -12 30 -16 39 -11 33 2 -5 -13 -6 0 -0 -0 -5 -2 -4 -2 -2 -1 -1 -1 -3 -1 -1 -2 -2 -2 -1 -1 -2 -2
3 1 -6 -11 -2 4 -2 -4 -4 7 -17 12 19 -6 6 -10 -3 -2 5 129 -1 17 -2 9 -3 -6 -1 -1 -0 -0 -2 -1 -0 -0 -1 -1 -3 -1 -1 -1 -1 1 -2 1
6 -0 -4 6 -10 -18 14 1 -2 2 -18 1 3 12 -32 -16 2 51 -16 15 -11 16 -12 5 4 -11 -4 -2 -2 -3 -3 -3 -1 -0 -2 -2 -2 0 -1 1 1 0 -0 1
-5 12 -4 -7 -10 -3 11 -17 2 -5 -1 -10 -7 2 -18 3 18 5 -18 -59 28 20 3 4 -5 -6 -4 -5 -4 -4 -2 0 -3 -1 -2 -2 -1 1 -1 -0 -1 -1 1 -1
4 1 -2 15 2 -4 -19 15 28 12 -20 -13 10 4 -6 4 -15 5 -9 -37 12 72 8 4 -4 -4 -1 -4 -3 -4 2 -3 -2 5 5 -3 -2 -1 0 -2 -2 -3 -1 -1
1 -11 -7 -13 -12 1 -10 -10 10 8 -4 -13 5 2 -0 11 13 -19 -9 -10 -11 -12 7 0 -2 -2 -2 -3 -7 5 -2 -4 -2 -6 1 0 -1 -1 -4 -4 -2 -2 -1 -1
1 -0 -5 10 -11 -6 11 15 -4 11 8 -4 4 -4 1 5 13 -6 -5 0 -3 2 8 -0 1 -2 -2 -3 -4 -5 1 -3 -3 -1 -0 -1 -1 -1 -1 -1 -1 -1 -2 -3
6 -1 9 3 14 -9 6 -12 -2 6 -7 21 6 0 11 -5 -5 16 -6 1 -0 5 -2 1 -2 0 -2 -1 -1 -0 -2 -1 -1 -2 -1 -1 -4 -0 -2 -6 -2 1 -5 -2
-1 1 -7 -6 -14 -8 4 -10 -3 -3 -6 3 -2 -1 3 1 -1 2 -16 -1 -11 -15 -12 -7 -5 -2 -4 -2 -1 -1 -2 -0 -1 -1 0 -4 0 3 -2 -4 1 -1 -4 -1
Height
5890 5890 5889 5888 5896 5892 5891 5891 5890 5889 5887 5886 5887 5886 5889 5888 5888 5886 5886 5886 5887 5888 5888 5889 5890 5890 5890 5890 5892 5892 5894 5895 5897 5899 5900 5902 5903 5906 5909 5912 5913 5915 5915 5917
5889 5888 5887 5888 5891 5889 5889 5889 5889 5884 5887 5887 5884 5884 5883 5884 5885 5886 5883 5884 5885 5886 5888 5886 5886 5889 5889 5889 5890 5891 5892 5894 5896 5898 5900 5902 5905 5907 5910 5911 5913 5914 5914 5914
5887 5886 5889 5887 5889 5887 5888 5889 5886 5884 5885 5882 5884 5882 5881 5879 5873 5884 5884 5884 5885 5884 5885 5886 5885 5885 5888 5888 5888 5889 5891 5893 5894 5897 5899 5901 5904 5907 5909 5911 5911 5912 5915 5915
5885 5886 5887 5885 5885 5887 5889 5887 5888 5887 5887 5884 5883 5884 5882 5881 5879 5875 5884 5881 5883 5884 5884 5884 5884 5885 5884 5888 5886 5887 5888 5891 5893 5895 5898 5901 5904 5906 5908 5909 5909 5911 5916 5918
5885 5883 5883 5883 5884 5888 5885 5885 5885 5885 5886 5884 5880 5877 5882 5881 5878 5855 5876 5881 5880 5882 5883 5883 5883 5883 5884 5884 5886 5886 5887 5889 5891 5894 5896 5898 5901 5904 5906 5906 5908 5911 5914 5915
5882 5883 5882 5882 5883 5883 5883 5883 5883 5883 5878 5879 5882 5881 5880 5879 5874 5873 5876 5877 5879 5881 5881 5882 5881 5883 5884 5883 5884 5885 5885 5887 5889 5892 5895 5897 5899 5902 5904 5905 5905 5909 5911 5913
5880 5880 5881 5880 5881 5883 5882 5882 5883 5884 5873 5878 5879 5877 5881 5881 5877 5879 5880 5880 5878 5880 5881 5880 5880 5882 5883 5883 5883 5885 5885 5886 5889 5891 5893 5895 5897 5899 5902 5904 5904 5904 5907 5907
5883 5883 5880 5879 5879 5881 5884 5885 5882 5882 5878 5880 5878 5878 5878 5880 5876 5876 5877 5877 5877 5879 5879 5879 5880 5881 5882 5882 5883 5884 5885 5886 5888 5889 5891 5893 5894 5897 5899 5901 5903 5904 5904 5905
5881 5885 5882 5878 5876 5879 5881 5884 5887 5886 5886 5887 5876 5874 5875 5876 5876 5876 5876 5875 5876 5877 5878 5878 5879 5880 5880 5881 5883 5883 5884 5885 5886 5887 5889 5891 5893 5894 5896 5898 5899 5901 5901 5902
5878 5881 5883 5881 5878 5879 5880 5882 5882 5884 5884 5884 5885 5877 5874 5871 5874 5876 5874 5874 5875 5876 5876 5876 5877 5878 5879 5880 5881 5882 5883 5884 5886 5887 5888 5889 5891 5893 5895 5896 5898 5899 5899 5899
5876 5878 5881 5881 5879 5879 5880 5879 5881 5883 5884 5883 5880 5878 5871 5867 5867 5875 5875 5872 5874 5875 5876 5876 5876 5877 5878 5879 5880 5881 5882 5884 5886 5886 5887 5889 5890 5892 5893 5895 5897 5898 5897 5896
5873 5873 5875 5877 5879 5879 5880 5880 5883 5884 5885 5882 5882 5872 5869 5868 5860 5871 5871 5870 5873 5875 5876 5876 5876 5877 5877 5879 5880 5881 5881 5883 5885 5885 5886 5887 5888 5890 5892 5893 5894 5895 5896 5895
5868 5869 5871 5874 5878 5879 5878 5880 5879 5880 5882 5881 5880 5877 5875 5875 5872 5871 5866 5865 5866 5872 5874 5875 5876 5876 5877 5877 5878 5879 5881 5882 5882 5883 5884 5885 5887 5888 5889 5889 5891 5892 5893 5893
5864 5866 5867 5871 5868 5864 5867 5867 5869 5868 5871 5876 5879 5872 5870 5867 5861 5866 5863 5854 5864 5864 5869 5872 5873 5875 5875 5875 5876 5877 5877 5878 5879 5880 5881 5882 5883 5884 5885 5886 5886 5887 5888 5889
5856 5857 5859 5859 5861 5858 5857 5861 5863 5864 5866 5866 5870 5870 5865 5865 5865 5863 5861 5848 5864 5861 5866 5869 5871 5871 5872 5872 5873 5874 5874 5875 5876 5877 5878 5878 5879 5880 5880 5881 5881 5882 5882 5883
5847 5847 5851 5852 5856 5853 5842 5852 5854 5854 5856 5859 5867 5867 5863 5861 5858 5856 5854 5860 5864 5861 5864 5866 5868 5869 5869 5870 5871 5872 5872 5873 5873 5873 5873 5873 5874 5875 5876 5876 5877 5877 5876 5876
5840 5841 5842 5842 5846 5845 5847 5847 5842 5844 5847 5850 5853 5864 5850 5844 5848 5844 5845 5854 5856 5858 5861 5864 5866 5866 5867 5868 5868 5869 5870 5870 5870 5870 5870 5870 5870 5871 5871 5871 5871 5871 5870 5870
5832 5834 5835 5835 5837 5833 5841 5844 5846 5841 5842 5843 5843 5846 5848 5842 5835 5843 5835 5842 5848 5851 5856 5859 5861 5863 5863 5864 5864 5865 5866 5866 5867 5867 5867 5867 5866 5866 5865 5865 5864 5864 5864 5864
5825 5825 5826 5827 5827 5829 5832 5836 5838 5837 5833 5837 5835 5836 5840 5836 5838 5840 5849 5833 5846 5847 5851 5854 5856 5858 5859 5859 5860 5860 5861 5861 5862 5861 5861 5861 5860 5860 5860 5859 5859 5857 5857 5856
5815 5815 5816 5819 5817 5821 5827 5828 5830 5830 5821 5823 5821 5827 5828 5831 5836 5836 5827 5821 5844 5845 5841 5848 5852 5851 5853 5855 5855 5855 5856 5856 5856 5856 5856 5856 5855 5853 5852 5852 5850 5849 5848 5849
5804 5804 5803 5808 5807 5811 5820 5815 5822 5819 5822 5817 5821 5823 5824 5821 5826 5829 5811 5812 5839 5842 5840 5843 5846 5847 5848 5848 5849 5849 5850 5850 5851 5851 5850 5851 5850 5848 5847 5844 5842 5841 5840 5839
5792 5795 5796 5797 5795 5795 5797 5806 5806 5807 5803 5806 5813 5818 5818 5812 5818 5816 5824 5813 5835 5823 5837 5837 5839 5841 5843 5843 5843 5844 5845 5845 5846 5846 5844 5844 5844 5842 5840 5838 5835 5832 5831 5830
5780 5779 5779 5781 5779 5779 5785 5786 5787 5787 5791 5794 5802 5806 5810 5810 5811 5808 5810 5821 5828 5832 5834 5831 5833 5835 5836 5836 5837 5839 5839 5840 5839 5840 5839 5838 5835 5833 5830 5828 5826 5823 5821 5819
5770 5767 5767 5770 5769 5771 5774 5774 5778 5780 5776 5779 5789 5793 5800 5803 5805 5808 5810 5816 5819 5822 5823 5824 5827 5828 5830 5830 5832 5833 5833 5833 5833 5832 5831 5829 5827 5824 5821 5819 5817 5814 5811 5807
5758 5756 5756 5756 5758 5759 5759 5760 5762 5762 5758 5771 5779 5782 5789 5792 5797 5798 5800 5806 5808 5811 5812 5816 5819 5821 5822 5824 5825 5825 5826 5826 5825 5824 5822 5820 5817 5815 5812 5808 5807 5805 5801 5797
5746 5744 5741 5739 5738 5741 5745 5742 5748 5748 5754 5758 5764 5769 5777 5781 5783 5791 5789 5797 5799 5801 5804 5806 5809 5813 5814 5817 5818 5818 5819 5818 5817 5815 5814 5811 5809 5807 5803 5799 5797 5793 5790 5787